Zurück zum Katalog

STARLINK-37655

AktivKommunikationSSO
NORAD 69142·PAYLOAD·🇺🇸 United States

Gestartet May 20, 2026 von Vandenberg Space Force Base

Loading…

Nächste Überflüge (nächste 24 Stunden)

TLE

AktuellSource: CelesTrak SupGP

Epoche: Sep 15, 2026, 03:06 UTC

1 69142C 26110U   26258.12965278 -.00050665  00000+0 -15727-2 0  2580
2 69142  97.2849  93.3083 0001748  91.5213 352.5045 15.33465043    19

Verfolge STARLINK-37655 in Echtzeit mit AllMySat

Download on the App Store